Elkins, WV

2:31 AM EDT on June 23, 2017 (GMT -0400)
Elkins-Randolph County

Weather History for KEKN - June, 2013

Change the Weather History Date:

Friday, June 28, 2013

  Actual Average Record
Temperature  
Mean Temperature 71 °F 69 °F  
Max Temperature 80 °F 80 °F 93 °F (2012)
Min Temperature 62 °F 57 °F 39 °F (1988)
Degree Days  
Heating Degree Days 0 1  
Month to date heating degree days 12 54  
Since 1 June heating degree days 12 54  
Since 1 July heating degree days 5786 5851  
Cooling Degree Days 6 5  
Month to date cooling degree days 89 83  
Year to date cooling degree days 114 106  
Since 1 June cooling degree days 89 83  
Growing Degree Days 22 (Base 50)    
Moisture  
Dew Point 63 °F    
Average Humidity 76    
Maximum Humidity 93    
Minimum Humidity 58    
Precipitation  
Precipitation 0.46 in 0.16 in 2.13 in (1953)
Month to date precipitation 4.17 4.07  
Year to date precipitation 20.56 23.28  
Snow  
Snow 0.00 in - - ()
Month to date snowfall 0.0  
Since 1 September snowfall 77.5  
Snow Depth 0.00 in    
Sea Level Pressure  
Sea Level Pressure 29.68 in    
Wind  
Wind Speed 6 mph (WSW)    
Max Wind Speed 25 mph    
Max Gust Speed 36 mph    
Visibility 10 miles    
Events Rain    
T = Trace of Precipitation, MM = Missing Value Source: NWS Daily Summary

Daily Weather History Graph

Daily Weather History Graph

Search for Another Location

Airport or City:

Trip Planner

Search our weather history database for the weather conditions in past years. The results will help you decide how hot, cold, wet, or windy it might be!

Date:

Astronomy

Jun. 28, 2013 Rise Set
Actual Time 5:56 AM EDT 8:48 PM EDT
Civil Twilight 5:24 AM EDT 9:20 PM EDT
Nautical Twilight 4:44 AM EDT 10:01 PM EDT
Astronomical Twilight 3:58 AM EDT 10:47 PM EDT
Moon No Moon Rise 11:58 AM EDT (6/28)
Length of Visible Light 15h 56m
Length of Day
14h 52m
Waning Gibbous, 66% of the Moon is Illuminated
Jun 28
Waning Gibbous
Jun 30
Last Quarter
Jul 8
New
Jul 15
First Quarter
Jul 22
Full

Hourly Weather History & Observations

Time (EDT) Temp. Dew Point Humidity Pressure Visibility Wind Dir Wind Speed Gust Speed Precip Events Conditions
12:47 AM 69.8 °F 64.4 °F 83% 29.76 in 10.0 mi Calm Calm - N/A   Mostly Cloudy
12:51 AM 68.0 °F 64.9 °F 90% 29.73 in 10.0 mi Variable 3.5 mph - N/A   Mostly Cloudy
1:51 AM 68.0 °F 64.0 °F 87% 29.71 in 10.0 mi Calm Calm - N/A   Mostly Cloudy
2:51 AM 66.9 °F 63.0 °F 87% 29.71 in 10.0 mi SSE 4.6 mph - N/A   Mostly Cloudy
3:47 AM 66.2 °F 62.6 °F 88% 29.72 in 10.0 mi Calm Calm - 0.00 in Rain Light Rain
3:51 AM 66.0 °F 63.0 °F 90% 29.70 in 10.0 mi Calm Calm - 0.00 in   Overcast
4:44 AM 66.2 °F 64.4 °F 94% 29.72 in 10.0 mi Calm Calm - 0.12 in   Overcast
4:51 AM 69.1 °F 64.9 °F 87% 29.70 in 10.0 mi Variable 4.6 mph - 0.12 in   Overcast
5:49 AM 69.8 °F 66.2 °F 88% 29.73 in 10.0 mi West 5.8 mph - 0.00 in   Overcast
5:51 AM 70.0 °F 66.0 °F 87% 29.70 in 10.0 mi West 6.9 mph - 0.00 in   Overcast
6:51 AM 70.0 °F 64.9 °F 84% 29.69 in 10.0 mi West 5.8 mph - 0.00 in   Mostly Cloudy
7:14 AM 71.6 °F 64.4 °F 78% 29.73 in 10.0 mi West 8.1 mph - N/A   Mostly Cloudy
7:22 AM 71.6 °F 64.4 °F 78% 29.72 in 10.0 mi WSW 5.8 mph - N/A   Mostly Cloudy
7:29 AM 71.6 °F 64.4 °F 78% 29.72 in 10.0 mi WSW 8.1 mph - N/A   Mostly Cloudy
7:51 AM 71.1 °F 63.0 °F 75% 29.69 in 10.0 mi SSW 4.6 mph - N/A   Mostly Cloudy
8:51 AM 70.0 °F 64.9 °F 84% 29.68 in 10.0 mi SSE 3.5 mph - 0.03 in   Scattered Clouds
9:51 AM 73.9 °F 64.9 °F 73% 29.66 in 10.0 mi Variable 5.8 mph - 0.00 in   Scattered Clouds
10:51 AM 78.1 °F 66.0 °F 66% 29.65 in 10.0 mi West 10.4 mph - N/A   Scattered Clouds
11:51 AM 79.0 °F 64.9 °F 62% 29.64 in 10.0 mi WSW 11.5 mph 20.7 mph 0.00 in   Partly Cloudy
12:51 PM 78.1 °F 63.0 °F 60% 29.62 in 10.0 mi West 6.9 mph 19.6 mph N/A   Mostly Cloudy
1:51 PM 72.0 °F 64.9 °F 78% 29.62 in 10.0 mi West 3.5 mph - 0.05 in   Mostly Cloudy
2:51 PM 78.1 °F 63.0 °F 60% 29.60 in 10.0 mi West 15.0 mph 21.9 mph 0.06 in   Partly Cloudy
3:51 PM 77.0 °F 62.1 °F 60% 29.61 in 10.0 mi West 12.7 mph 20.7 mph 0.01 in   Partly Cloudy
4:51 PM 66.9 °F 62.1 °F 84% 29.62 in 10.0 mi North 11.5 mph 19.6 mph 0.03 in Rain Light Rain
5:51 PM 64.0 °F 60.1 °F 87% 29.65 in 2.5 mi NNW 9.2 mph 35.7 mph 0.10 in Rain Light Rain
5:59 PM 64.4 °F 60.8 °F 88% 29.67 in 10.0 mi NW 9.2 mph - 0.00 in Rain Light Rain
6:51 PM 64.9 °F 61.0 °F 87% 29.64 in 10.0 mi Calm Calm - 0.00 in   Overcast
7:51 PM 64.0 °F 61.0 °F 90% 29.65 in 10.0 mi South 6.9 mph - 0.02 in   Overcast
8:51 PM 63.0 °F 60.1 °F 90% 29.66 in 10.0 mi Calm Calm - N/A   Overcast
9:51 PM 63.0 °F 60.1 °F 90% 29.66 in 10.0 mi Variable 3.5 mph - N/A   Overcast
10:51 PM 64.0 °F 60.1 °F 87% 29.65 in 10.0 mi SSE 3.5 mph - N/A   Overcast
11:51 PM 63.0 °F 60.1 °F 90% 29.65 in 10.0 mi SSW 4.6 mph - 0.04 in   Mostly Cloudy